owner,sensor,date,latitude,longitude,air_pressure(mBar),qcFlag 
NDBC,ioos:station:NOAA.NDBC:SGOF1:1,2014-07-01T00:00:00Z,29.4080,-84.8580,1014.9,1111122 
NDBC,ioos:station:NOAA.NDBC:SGOF1:1,2014-07-01T01:00:00Z,29.4080,-84.8580,1015.5,1111122 
NDBC,ioos:station:NOAA.NDBC:SGOF1:1,2014-07-01T02:00:00Z,29.4080,-84.8580,1015.8,1111122 
NDBC,ioos:station:NOAA.NDBC:SGOF1:1,2014-07-01T03:00:00Z,29.4080,-84.8580,1015.8,1111122 
NDBC,ioos:station:NOAA.NDBC:SGOF1:1,2014-07-01T05:00:00Z,29.4080,-84.8580,1014.8,1111122 
NDBC,ioos:station:NOAA.NDBC:SGOF1:1,2014-07-01T07:00:00Z,29.4080,-84.8580,1013.5,1111122 
NDBC,ioos:station:NOAA.NDBC:SGOF1:1,2014-07-01T08:00:00Z,29.4080,-84.8580,1013.1,1111122 
NDBC,ioos:station:NOAA.NDBC:SGOF1:1,2014-07-01T09:00:00Z,29.4080,-84.8580,1013.2,1111122 
NDBC,ioos:station:NOAA.NDBC:SGOF1:1,2014-07-01T10:00:00Z,29.4080,-84.8580,1013.5,1111122 
NDBC,ioos:station:NOAA.NDBC:SGOF1:1,2014-07-01T11:00:00Z,29.4080,-84.8580,1013.9,1111122 
NDBC,ioos:station:NOAA.NDBC:SGOF1:1,2014-07-01T12:00:00Z,29.4080,-84.8580,1014.3,1111122 
NDBC,ioos:station:NOAA.NDBC:SGOF1:1,2014-07-01T13:00:00Z,29.4080,-84.8580,1015.1,1111122 
NDBC,ioos:station:NOAA.NDBC:SGOF1:1,2014-07-01T14:00:00Z,29.4080,-84.8580,1015.2,1111122 
NDBC,ioos:station:NOAA.NDBC:SGOF1:1,2014-07-01T15:00:00Z,29.4080,-84.8580,1015.7,1111122 
NDBC,ioos:station:NOAA.NDBC:SGOF1:1,2014-07-01T16:00:00Z,29.4080,-84.8580,1015.7,1111122 
NDBC,ioos:station:NOAA.NDBC:SGOF1:1,2014-07-01T17:00:00Z,29.4080,-84.8580,1015.3,1111122 
NDBC,ioos:station:NOAA.NDBC:SGOF1:1,2014-07-01T18:00:00Z,29.4080,-84.8580,1014.8,1111122 
NDBC,ioos:station:NOAA.NDBC:SGOF1:1,2014-07-01T20:00:00Z,29.4080,-84.8580,1013.1,1111122 
NDBC,ioos:station:NOAA.NDBC:SGOF1:1,2014-07-01T22:00:00Z,29.4080,-84.8580,1012.8,1111122 
NDBC,ioos:station:NOAA.NDBC:SGOF1:1,2014-07-01T23:00:00Z,29.4080,-84.8580,1012.8,1111122 
NDBC,ioos:station:NOAA.NDBC:SGOF1:1,2014-07-02T00:00:00Z,29.4080,-84.8580,1013.1,1111122 
NDBC,ioos:station:NOAA.NDBC:SGOF1:1,2014-07-02T01:00:00Z,29.4080,-84.8580,1013.2,1111122 
NDBC,ioos:station:NOAA.NDBC:SGOF1:1,2014-07-02T02:00:00Z,29.4080,-84.8580,1013.7,1111122 
NDBC,ioos:station:NOAA.NDBC:SGOF1:1,2014-07-02T03:00:00Z,29.4080,-84.8580,1013.4,1111122 
NDBC,ioos:station:NOAA.NDBC:SGOF1:1,2014-07-02T05:00:00Z,29.4080,-84.8580,1013.5,1111122 
NDBC,ioos:station:NOAA.NDBC:SGOF1:1,2014-07-02T07:00:00Z,29.4080,-84.8580,1012.9,1111122 
NDBC,ioos:station:NOAA.NDBC:SGOF1:1,2014-07-02T08:00:00Z,29.4080,-84.8580,1013.0,1111122 
NDBC,ioos:station:NOAA.NDBC:SGOF1:1,2014-07-02T09:00:00Z,29.4080,-84.8580,1012.5,1111122 
NDBC,ioos:station:NOAA.NDBC:SGOF1:1,2014-07-02T10:00:00Z,29.4080,-84.8580,1013.0,1111122 
NDBC,ioos:station:NOAA.NDBC:SGOF1:1,2014-07-02T12:00:00Z,29.4080,-84.8580,1013.5,1111122 
NDBC,ioos:station:NOAA.NDBC:SGOF1:1,2014-07-02T13:00:00Z,29.4080,-84.8580,1013.3,1111122 
NDBC,ioos:station:NOAA.NDBC:SGOF1:1,2014-07-02T14:00:00Z,29.4080,-84.8580,1013.9,1111122 
NDBC,ioos:station:NOAA.NDBC:SGOF1:1,2014-07-02T15:00:00Z,29.4080,-84.8580,1014.3,1111122 
NDBC,ioos:station:NOAA.NDBC:SGOF1:1,2014-07-02T17:00:00Z,29.4080,-84.8580,1014.5,1111122 
NDBC,ioos:station:NOAA.NDBC:SGOF1:1,2014-07-02T18:00:00Z,29.4080,-84.8580,1014.3,1111122 
NDBC,ioos:station:NOAA.NDBC:SGOF1:1,2014-07-02T19:00:00Z,29.4080,-84.8580,1014.0,1111122 
NDBC,ioos:station:NOAA.NDBC:SGOF1:1,2014-07-02T21:00:00Z,29.4080,-84.8580,1013.9,1111122 
NDBC,ioos:station:NOAA.NDBC:SGOF1:1,2014-07-02T22:00:00Z,29.4080,-84.8580,1013.7,1111122 
NDBC,ioos:station:NOAA.NDBC:SGOF1:1,2014-07-02T23:00:00Z,29.4080,-84.8580,1013.2,1111122 
NDBC,ioos:station:NOAA.NDBC:SGOF1:1,2014-07-03T00:00:00Z,29.4080,-84.8580,1013.3,1111122 
NDBC,ioos:station:NOAA.NDBC:SGOF1:1,2014-07-03T01:00:00Z,29.4080,-84.8580,1013.2,1111122 
NDBC,ioos:station:NOAA.NDBC:SGOF1:1,2014-07-03T02:00:00Z,29.4080,-84.8580,1013.8,1111122 
NDBC,ioos:station:NOAA.NDBC:SGOF1:1,2014-07-03T03:00:00Z,29.4080,-84.8580,1014.3,1111122 
NDBC,ioos:station:NOAA.NDBC:SGOF1:1,2014-07-03T05:00:00Z,29.4080,-84.8580,1016.1,1111122 
NDBC,ioos:station:NOAA.NDBC:SGOF1:1,2014-07-03T06:00:00Z,29.4080,-84.8580,1015.7,1111122 
NDBC,ioos:station:NOAA.NDBC:SGOF1:1,2014-07-03T07:00:00Z,29.4080,-84.8580,1014.6,1111122 
NDBC,ioos:station:NOAA.NDBC:SGOF1:1,2014-07-03T08:00:00Z,29.4080,-84.8580,1014.2,1111122 
NDBC,ioos:station:NOAA.NDBC:SGOF1:1,2014-07-03T09:00:00Z,29.4080,-84.8580,1015.2,1111122 
NDBC,ioos:station:NOAA.NDBC:SGOF1:1,2014-07-03T10:00:00Z,29.4080,-84.8580,1015.6,1111122 
NDBC,ioos:station:NOAA.NDBC:SGOF1:1,2014-07-03T11:00:00Z,29.4080,-84.8580,1014.9,1111122 
NDBC,ioos:station:NOAA.NDBC:SGOF1:1,2014-07-03T12:00:00Z,29.4080,-84.8580,1015.1,1111122 
NDBC,ioos:station:NOAA.NDBC:SGOF1:1,2014-07-03T13:00:00Z,29.4080,-84.8580,1015.4,1111122 
NDBC,ioos:station:NOAA.NDBC:SGOF1:1,2014-07-03T14:00:00Z,29.4080,-84.8580,1016.4,1111122 
NDBC,ioos:station:NOAA.NDBC:SGOF1:1,2014-07-03T15:00:00Z,29.4080,-84.8580,1016.4,1111122 
NDBC,ioos:station:NOAA.NDBC:SGOF1:1,2014-07-03T17:00:00Z,29.4080,-84.8580,1017.1,1111122 
NDBC,ioos:station:NOAA.NDBC:SGOF1:1,2014-07-03T19:00:00Z,29.4080,-84.8580,1016.8,1111122 
NDBC,ioos:station:NOAA.NDBC:SGOF1:1,2014-07-03T20:00:00Z,29.4080,-84.8580,1016.4,1111122 
NDBC,ioos:station:NOAA.NDBC:SGOF1:1,2014-07-03T21:00:00Z,29.4080,-84.8580,1015.9,1111122 
NDBC,ioos:station:NOAA.NDBC:SGOF1:1,2014-07-03T22:00:00Z,29.4080,-84.8580,1015.6,1111122 
NDBC,ioos:station:NOAA.NDBC:SGOF1:1,2014-07-03T23:00:00Z,29.4080,-84.8580,1015.4,1111122 
NDBC,ioos:station:NOAA.NDBC:SGOF1:1,2014-07-04T00:00:00Z,29.4080,-84.8580,1016.3,1111122 
NDBC,ioos:station:NOAA.NDBC:SGOF1:1,2014-07-04T02:00:00Z,29.4080,-84.8580,1016.8,1111122 
NDBC,ioos:station:NOAA.NDBC:SGOF1:1,2014-07-04T03:00:00Z,29.4080,-84.8580,1017.0,1111122 
NDBC,ioos:station:NOAA.NDBC:SGOF1:1,2014-07-04T04:00:00Z,29.4080,-84.8580,1017.2,1111122 
NDBC,ioos:station:NOAA.NDBC:SGOF1:1,2014-07-04T05:00:00Z,29.4080,-84.8580,1017.5,1111122 
NDBC,ioos:station:NOAA.NDBC:SGOF1:1,2014-07-04T07:00:00Z,29.4080,-84.8580,1017.1,1111122 
NDBC,ioos:station:NOAA.NDBC:SGOF1:1,2014-07-04T08:00:00Z,29.4080,-84.8580,1016.6,1111122 
NDBC,ioos:station:NOAA.NDBC:SGOF1:1,2014-07-04T09:00:00Z,29.4080,-84.8580,1017.0,1111122 
NDBC,ioos:station:NOAA.NDBC:SGOF1:1,2014-07-04T10:00:00Z,29.4080,-84.8580,1017.5,1111122 
NDBC,ioos:station:NOAA.NDBC:SGOF1:1,2014-07-04T11:00:00Z,29.4080,-84.8580,1018.1,1111122 
NDBC,ioos:station:NOAA.NDBC:SGOF1:1,2014-07-04T12:00:00Z,29.4080,-84.8580,1018.4,1111122 
NDBC,ioos:station:NOAA.NDBC:SGOF1:1,2014-07-04T13:00:00Z,29.4080,-84.8580,1018.9,1111122 
NDBC,ioos:station:NOAA.NDBC:SGOF1:1,2014-07-04T14:00:00Z,29.4080,-84.8580,1019.7,1111122 
NDBC,ioos:station:NOAA.NDBC:SGOF1:1,2014-07-04T15:00:00Z,29.4080,-84.8580,1019.9,1111122 
NDBC,ioos:station:NOAA.NDBC:SGOF1:1,2014-07-04T16:00:00Z,29.4080,-84.8580,1020.1,1111122 
NDBC,ioos:station:NOAA.NDBC:SGOF1:1,2014-07-04T17:00:00Z,29.4080,-84.8580,1019.9,1111122 
NDBC,ioos:station:NOAA.NDBC:SGOF1:1,2014-07-04T18:00:00Z,29.4080,-84.8580,1019.6,1111122 
NDBC,ioos:station:NOAA.NDBC:SGOF1:1,2014-07-04T20:00:00Z,29.4080,-84.8580,1018.9,1111122 
NDBC,ioos:station:NOAA.NDBC:SGOF1:1,2014-07-04T22:00:00Z,29.4080,-84.8580,1018.4,1111122 
NDBC,ioos:station:NOAA.NDBC:SGOF1:1,2014-07-04T23:00:00Z,29.4080,-84.8580,1018.4,1111122 
NDBC,ioos:station:NOAA.NDBC:SGOF1:1,2014-07-05T01:00:00Z,29.4080,-84.8580,1018.9,1111122 
NDBC,ioos:station:NOAA.NDBC:SGOF1:1,2014-07-05T03:00:00Z,29.4080,-84.8580,1019.0,1111122 
NDBC,ioos:station:NOAA.NDBC:SGOF1:1,2014-07-05T04:00:00Z,29.4080,-84.8580,1019.4,1111122 
NDBC,ioos:station:NOAA.NDBC:SGOF1:1,2014-07-05T05:00:00Z,29.4080,-84.8580,1019.3,1111122 
NDBC,ioos:station:NOAA.NDBC:SGOF1:1,2014-07-05T07:00:00Z,29.4080,-84.8580,1018.4,1111122 
NDBC,ioos:station:NOAA.NDBC:SGOF1:1,2014-07-05T08:00:00Z,29.4080,-84.8580,1018.1,1111122 
NDBC,ioos:station:NOAA.NDBC:SGOF1:1,2014-07-05T09:00:00Z,29.4080,-84.8580,1018.5,1111122 
NDBC,ioos:station:NOAA.NDBC:SGOF1:1,2014-07-05T11:00:00Z,29.4080,-84.8580,1019.1,1111122 
NDBC,ioos:station:NOAA.NDBC:SGOF1:1,2014-07-05T12:00:00Z,29.4080,-84.8580,1019.5,1111122 
NDBC,ioos:station:NOAA.NDBC:SGOF1:1,2014-07-05T13:00:00Z,29.4080,-84.8580,1019.9,1111122 
NDBC,ioos:station:NOAA.NDBC:SGOF1:1,2014-07-05T14:00:00Z,29.4080,-84.8580,1020.0,1111122 
NDBC,ioos:station:NOAA.NDBC:SGOF1:1,2014-07-05T15:00:00Z,29.4080,-84.8580,1020.0,1111122 
NDBC,ioos:station:NOAA.NDBC:SGOF1:1,2014-07-05T16:00:00Z,29.4080,-84.8580,1020.1,1111122 
NDBC,ioos:station:NOAA.NDBC:SGOF1:1,2014-07-05T17:00:00Z,29.4080,-84.8580,1020.3,1111122 
NDBC,ioos:station:NOAA.NDBC:SGOF1:1,2014-07-05T18:00:00Z,29.4080,-84.8580,1020.1,1111122 
NDBC,ioos:station:NOAA.NDBC:SGOF1:1,2014-07-05T20:00:00Z,29.4080,-84.8580,1018.8,1111122 
NDBC,ioos:station:NOAA.NDBC:SGOF1:1,2014-07-05T22:00:00Z,29.4080,-84.8580,1018.5,1111122 
NDBC,ioos:station:NOAA.NDBC:SGOF1:1,2014-07-05T23:00:00Z,29.4080,-84.8580,1018.3,1111122 
NDBC,ioos:station:NOAA.NDBC:SGOF1:1,2014-07-06T00:00:00Z,29.4080,-84.8580,1018.8,1111122 
NDBC,ioos:station:NOAA.NDBC:SGOF1:1,2014-07-06T01:00:00Z,29.4080,-84.8580,1018.8,1111122 
NDBC,ioos:station:NOAA.NDBC:SGOF1:1,2014-07-06T02:00:00Z,29.4080,-84.8580,1018.5,1111122 
NDBC,ioos:station:NOAA.NDBC:SGOF1:1,2014-07-06T04:00:00Z,29.4080,-84.8580,1018.5,1111122 
NDBC,ioos:station:NOAA.NDBC:SGOF1:1,2014-07-06T06:00:00Z,29.4080,-84.8580,1018.1,1111122 
NDBC,ioos:station:NOAA.NDBC:SGOF1:1,2014-07-06T07:00:00Z,29.4080,-84.8580,1017.7,1111122 
NDBC,ioos:station:NOAA.NDBC:SGOF1:1,2014-07-06T08:00:00Z,29.4080,-84.8580,1017.3,1111122 
NDBC,ioos:station:NOAA.NDBC:SGOF1:1,2014-07-06T09:00:00Z,29.4080,-84.8580,1017.3,1111122 
NDBC,ioos:station:NOAA.NDBC:SGOF1:1,2014-07-06T10:00:00Z,29.4080,-84.8580,1017.7,1111122 
NDBC,ioos:station:NOAA.NDBC:SGOF1:1,2014-07-06T11:00:00Z,29.4080,-84.8580,1017.9,1111122 
NDBC,ioos:station:NOAA.NDBC:SGOF1:1,2014-07-06T12:00:00Z,29.4080,-84.8580,1018.1,1111122 
NDBC,ioos:station:NOAA.NDBC:SGOF1:1,2014-07-06T13:00:00Z,29.4080,-84.8580,1018.7,1111122 
NDBC,ioos:station:NOAA.NDBC:SGOF1:1,2014-07-06T14:00:00Z,29.4080,-84.8580,1019.1,1111122 
NDBC,ioos:station:NOAA.NDBC:SGOF1:1,2014-07-06T15:00:00Z,29.4080,-84.8580,1019.0,1111122 
NDBC,ioos:station:NOAA.NDBC:SGOF1:1,2014-07-06T17:00:00Z,29.4080,-84.8580,1018.8,1111122 
NDBC,ioos:station:NOAA.NDBC:SGOF1:1,2014-07-06T18:00:00Z,29.4080,-84.8580,1018.5,1111122 
NDBC,ioos:station:NOAA.NDBC:SGOF1:1,2014-07-06T20:00:00Z,29.4080,-84.8580,1017.4,1111122 
NDBC,ioos:station:NOAA.NDBC:SGOF1:1,2014-07-06T22:00:00Z,29.4080,-84.8580,1016.6,1111122 
NDBC,ioos:station:NOAA.NDBC:SGOF1:1,2014-07-06T23:00:00Z,29.4080,-84.8580,1016.7,1111122 
NDBC,ioos:station:NOAA.NDBC:SGOF1:1,2014-07-07T00:00:00Z,29.4080,-84.8580,1017.3,1111122 
NDBC,ioos:station:NOAA.NDBC:SGOF1:1,2014-07-07T01:00:00Z,29.4080,-84.8580,1017.7,1111122 
NDBC,ioos:station:NOAA.NDBC:SGOF1:1,2014-07-07T02:00:00Z,29.4080,-84.8580,1017.6,1111122 
NDBC,ioos:station:NOAA.NDBC:SGOF1:1,2014-07-07T03:00:00Z,29.4080,-84.8580,1017.7,1111122 
NDBC,ioos:station:NOAA.NDBC:SGOF1:1,2014-07-07T04:00:00Z,29.4080,-84.8580,1017.6,1111122 
NDBC,ioos:station:NOAA.NDBC:SGOF1:1,2014-07-07T05:00:00Z,29.4080,-84.8580,1017.2,1111122 
NDBC,ioos:station:NOAA.NDBC:SGOF1:1,2014-07-07T06:00:00Z,29.4080,-84.8580,1017.2,1111122 
NDBC,ioos:station:NOAA.NDBC:SGOF1:1,2014-07-07T07:00:00Z,29.4080,-84.8580,1016.5,1111122 
NDBC,ioos:station:NOAA.NDBC:SGOF1:1,2014-07-07T08:00:00Z,29.4080,-84.8580,1016.3,1111122 
NDBC,ioos:station:NOAA.NDBC:SGOF1:1,2014-07-07T09:00:00Z,29.4080,-84.8580,1016.4,1111122 
NDBC,ioos:station:NOAA.NDBC:SGOF1:1,2014-07-07T10:00:00Z,29.4080,-84.8580,1017.1,1111122 
NDBC,ioos:station:NOAA.NDBC:SGOF1:1,2014-07-07T11:00:00Z,29.4080,-84.8580,1017.8,1111122 
NDBC,ioos:station:NOAA.NDBC:SGOF1:1,2014-07-07T12:00:00Z,29.4080,-84.8580,1018.4,1111122 
NDBC,ioos:station:NOAA.NDBC:SGOF1:1,2014-07-07T13:00:00Z,29.4080,-84.8580,1019.0,1111122 
NDBC,ioos:station:NOAA.NDBC:SGOF1:1,2014-07-07T14:00:00Z,29.4080,-84.8580,1019.4,1111122 
NDBC,ioos:station:NOAA.NDBC:SGOF1:1,2014-07-07T15:00:00Z,29.4080,-84.8580,1019.5,1111122 
NDBC,ioos:station:NOAA.NDBC:SGOF1:1,2014-07-07T16:00:00Z,29.4080,-84.8580,1019.4,1111122 
NDBC,ioos:station:NOAA.NDBC:SGOF1:1,2014-07-07T17:00:00Z,29.4080,-84.8580,1019.4,1111122 
NDBC,ioos:station:NOAA.NDBC:SGOF1:1,2014-07-07T18:00:00Z,29.4080,-84.8580,1019.1,1111122 
NDBC,ioos:station:NOAA.NDBC:SGOF1:1,2014-07-07T20:00:00Z,29.4080,-84.8580,1018.3,1111122 
NDBC,ioos:station:NOAA.NDBC:SGOF1:1,2014-07-07T22:00:00Z,29.4080,-84.8580,1017.7,1111122 
NDBC,ioos:station:NOAA.NDBC:SGOF1:1,2014-07-07T23:00:00Z,29.4080,-84.8580,1017.3,1111122 
NDBC,ioos:station:NOAA.NDBC:SGOF1:1,2014-07-08T00:00:00Z,29.4080,-84.8580,1017.5,1111122 
NDBC,ioos:station:NOAA.NDBC:SGOF1:1,2014-07-08T01:00:00Z,29.4080,-84.8580,1017.8,1111122 
NDBC,ioos:station:NOAA.NDBC:SGOF1:1,2014-07-08T02:00:00Z,29.4080,-84.8580,1017.9,1111122 
NDBC,ioos:station:NOAA.NDBC:SGOF1:1,2014-07-08T03:00:00Z,29.4080,-84.8580,1018.5,1111122 
NDBC,ioos:station:NOAA.NDBC:SGOF1:1,2014-07-08T04:00:00Z,29.4080,-84.8580,1018.8,1111122 
NDBC,ioos:station:NOAA.NDBC:SGOF1:1,2014-07-08T05:00:00Z,29.4080,-84.8580,1018.7,1111122 
NDBC,ioos:station:NOAA.NDBC:SGOF1:1,2014-07-08T06:00:00Z,29.4080,-84.8580,1018.6,1111122 
NDBC,ioos:station:NOAA.NDBC:SGOF1:1,2014-07-08T07:00:00Z,29.4080,-84.8580,1018.1,1111122 
NDBC,ioos:station:NOAA.NDBC:SGOF1:1,2014-07-08T08:00:00Z,29.4080,-84.8580,1017.9,1111122 
NDBC,ioos:station:NOAA.NDBC:SGOF1:1,2014-07-08T09:00:00Z,29.4080,-84.8580,1017.8,1111122 
NDBC,ioos:station:NOAA.NDBC:SGOF1:1,2014-07-08T10:00:00Z,29.4080,-84.8580,1017.7,1111122 
NDBC,ioos:station:NOAA.NDBC:SGOF1:1,2014-07-08T11:00:00Z,29.4080,-84.8580,1018.4,1111122 
NDBC,ioos:station:NOAA.NDBC:SGOF1:1,2014-07-08T12:00:00Z,29.4080,-84.8580,1019.5,1111122 
NDBC,ioos:station:NOAA.NDBC:SGOF1:1,2014-07-08T13:00:00Z,29.4080,-84.8580,1020.6,1111122 
NDBC,ioos:station:NOAA.NDBC:SGOF1:1,2014-07-08T14:00:00Z,29.4080,-84.8580,1021.2,1111122 
NDBC,ioos:station:NOAA.NDBC:SGOF1:1,2014-07-08T15:00:00Z,29.4080,-84.8580,1020.8,1111122 
NDBC,ioos:station:NOAA.NDBC:SGOF1:1,2014-07-08T16:00:00Z,29.4080,-84.8580,1020.6,1111122 
NDBC,ioos:station:NOAA.NDBC:SGOF1:1,2014-07-08T17:00:00Z,29.4080,-84.8580,1020.4,1111122 
NDBC,ioos:station:NOAA.NDBC:SGOF1:1,2014-07-08T18:00:00Z,29.4080,-84.8580,1019.9,1111122 
NDBC,ioos:station:NOAA.NDBC:SGOF1:1,2014-07-08T19:00:00Z,29.4080,-84.8580,1019.5,1111122 
NDBC,ioos:station:NOAA.NDBC:SGOF1:1,2014-07-08T21:00:00Z,29.4080,-84.8580,1018.7,1111122 
NDBC,ioos:station:NOAA.NDBC:SGOF1:1,2014-07-08T22:00:00Z,29.4080,-84.8580,1018.0,1111122 
NDBC,ioos:station:NOAA.NDBC:SGOF1:1,2014-07-08T23:00:00Z,29.4080,-84.8580,1018.2,1111122 
NDBC,ioos:station:NOAA.NDBC:SGOF1:1,2014-07-09T01:00:00Z,29.4080,-84.8580,1018.6,1111122 
NDBC,ioos:station:NOAA.NDBC:SGOF1:1,2014-07-09T02:00:00Z,29.4080,-84.8580,1019.7,1111122 
NDBC,ioos:station:NOAA.NDBC:SGOF1:1,2014-07-09T04:00:00Z,29.4080,-84.8580,1019.3,1111122 
NDBC,ioos:station:NOAA.NDBC:SGOF1:1,2014-07-09T06:00:00Z,29.4080,-84.8580,1018.6,1111122 
NDBC,ioos:station:NOAA.NDBC:SGOF1:1,2014-07-09T07:00:00Z,29.4080,-84.8580,1018.2,1111122 
NDBC,ioos:station:NOAA.NDBC:SGOF1:1,2014-07-09T08:00:00Z,29.4080,-84.8580,1018.6,1111122 
NDBC,ioos:station:NOAA.NDBC:SGOF1:1,2014-07-09T09:00:00Z,29.4080,-84.8580,1018.3,1111122 
NDBC,ioos:station:NOAA.NDBC:SGOF1:1,2014-07-09T10:00:00Z,29.4080,-84.8580,1018.4,1111122 
NDBC,ioos:station:NOAA.NDBC:SGOF1:1,2014-07-09T11:00:00Z,29.4080,-84.8580,1018.8,1111122 
NDBC,ioos:station:NOAA.NDBC:SGOF1:1,2014-07-09T12:00:00Z,29.4080,-84.8580,1019.3,1111122 
NDBC,ioos:station:NOAA.NDBC:SGOF1:1,2014-07-09T13:00:00Z,29.4080,-84.8580,1019.6,1111122 
NDBC,ioos:station:NOAA.NDBC:SGOF1:1,2014-07-09T15:00:00Z,29.4080,-84.8580,1019.7,1111122 
NDBC,ioos:station:NOAA.NDBC:SGOF1:1,2014-07-09T16:00:00Z,29.4080,-84.8580,1019.9,1111122 
NDBC,ioos:station:NOAA.NDBC:SGOF1:1,2014-07-09T18:00:00Z,29.4080,-84.8580,1019.3,1111122 
NDBC,ioos:station:NOAA.NDBC:SGOF1:1,2014-07-09T19:00:00Z,29.4080,-84.8580,1019.1,1111122 
NDBC,ioos:station:NOAA.NDBC:SGOF1:1,2014-07-09T20:00:00Z,29.4080,-84.8580,1018.5,1111122 
NDBC,ioos:station:NOAA.NDBC:SGOF1:1,2014-07-09T22:00:00Z,29.4080,-84.8580,1017.7,1111122 
NDBC,ioos:station:NOAA.NDBC:SGOF1:1,2014-07-09T23:00:00Z,29.4080,-84.8580,1018.0,1111122 
NDBC,ioos:station:NOAA.NDBC:SGOF1:1,2014-07-10T00:00:00Z,29.4080,-84.8580,1018.3,1111122 
NDBC,ioos:station:NOAA.NDBC:SGOF1:1,2014-07-10T01:00:00Z,29.4080,-84.8580,1018.4,1111122 
NDBC,ioos:station:NOAA.NDBC:SGOF1:1,2014-07-10T02:00:00Z,29.4080,-84.8580,1018.6,1111122 
NDBC,ioos:station:NOAA.NDBC:SGOF1:1,2014-07-10T03:00:00Z,29.4080,-84.8580,1018.7,1111122 
NDBC,ioos:station:NOAA.NDBC:SGOF1:1,2014-07-10T04:00:00Z,29.4080,-84.8580,1018.5,1111122 
NDBC,ioos:station:NOAA.NDBC:SGOF1:1,2014-07-10T06:00:00Z,29.4080,-84.8580,1018.0,1111122 
NDBC,ioos:station:NOAA.NDBC:SGOF1:1,2014-07-10T07:00:00Z,29.4080,-84.8580,1017.7,1111122 
NDBC,ioos:station:NOAA.NDBC:SGOF1:1,2014-07-10T08:00:00Z,29.4080,-84.8580,1017.5,1111122 
NDBC,ioos:station:NOAA.NDBC:SGOF1:1,2014-07-10T09:00:00Z,29.4080,-84.8580,1017.4,1111122 
NDBC,ioos:station:NOAA.NDBC:SGOF1:1,2014-07-10T10:00:00Z,29.4080,-84.8580,1017.8,1111122 
NDBC,ioos:station:NOAA.NDBC:SGOF1:1,2014-07-10T11:00:00Z,29.4080,-84.8580,1018.1,1111122 
NDBC,ioos:station:NOAA.NDBC:SGOF1:1,2014-07-10T12:00:00Z,29.4080,-84.8580,1019.0,1111122 
NDBC,ioos:station:NOAA.NDBC:SGOF1:1,2014-07-10T13:00:00Z,29.4080,-84.8580,1019.5,1111122 
NDBC,ioos:station:NOAA.NDBC:SGOF1:1,2014-07-10T14:00:00Z,29.4080,-84.8580,1019.8,1111122 
NDBC,ioos:station:NOAA.NDBC:SGOF1:1,2014-07-10T15:00:00Z,29.4080,-84.8580,1019.9,1111122 
NDBC,ioos:station:NOAA.NDBC:SGOF1:1,2014-07-10T16:00:00Z,29.4080,-84.8580,1020.0,1111122 
NDBC,ioos:station:NOAA.NDBC:SGOF1:1,2014-07-10T17:00:00Z,29.4080,-84.8580,1020.0,1111122 
NDBC,ioos:station:NOAA.NDBC:SGOF1:1,2014-07-10T19:00:00Z,29.4080,-84.8580,1019.3,1111122 
NDBC,ioos:station:NOAA.NDBC:SGOF1:1,2014-07-10T21:00:00Z,29.4080,-84.8580,1018.6,1111122 
NDBC,ioos:station:NOAA.NDBC:SGOF1:1,2014-07-10T22:00:00Z,29.4080,-84.8580,1017.2,1111122 
NDBC,ioos:station:NOAA.NDBC:SGOF1:1,2014-07-10T23:00:00Z,29.4080,-84.8580,1017.9,1111122 
NDBC,ioos:station:NOAA.NDBC:SGOF1:1,2014-07-11T00:00:00Z,29.4080,-84.8580,1018.8,1111122 
NDBC,ioos:station:NOAA.NDBC:SGOF1:1,2014-07-11T01:00:00Z,29.4080,-84.8580,1019.1,1111122 
NDBC,ioos:station:NOAA.NDBC:SGOF1:1,2014-07-11T02:00:00Z,29.4080,-84.8580,1018.9,1111122 
NDBC,ioos:station:NOAA.NDBC:SGOF1:1,2014-07-11T04:00:00Z,29.4080,-84.8580,1019.2,1111122 
NDBC,ioos:station:NOAA.NDBC:SGOF1:1,2014-07-11T06:00:00Z,29.4080,-84.8580,1018.9,1111122 
NDBC,ioos:station:NOAA.NDBC:SGOF1:1,2014-07-11T08:00:00Z,29.4080,-84.8580,1018.3,1111122 
NDBC,ioos:station:NOAA.NDBC:SGOF1:1,2014-07-11T09:00:00Z,29.4080,-84.8580,1018.5,1111122 
NDBC,ioos:station:NOAA.NDBC:SGOF1:1,2014-07-11T10:00:00Z,29.4080,-84.8580,1018.5,1111122 
NDBC,ioos:station:NOAA.NDBC:SGOF1:1,2014-07-11T12:00:00Z,29.4080,-84.8580,1019.7,1111122 
NDBC,ioos:station:NOAA.NDBC:SGOF1:1,2014-07-11T13:00:00Z,29.4080,-84.8580,1020.4,1111122 
NDBC,ioos:station:NOAA.NDBC:SGOF1:1,2014-07-11T14:00:00Z,29.4080,-84.8580,1020.6,1111122 
NDBC,ioos:station:NOAA.NDBC:SGOF1:1,2014-07-11T16:00:00Z,29.4080,-84.8580,1020.8,1111122 
NDBC,ioos:station:NOAA.NDBC:SGOF1:1,2014-07-11T17:00:00Z,29.4080,-84.8580,1020.6,1111122 
NDBC,ioos:station:NOAA.NDBC:SGOF1:1,2014-07-11T19:00:00Z,29.4080,-84.8580,1019.9,1111122 
NDBC,ioos:station:NOAA.NDBC:SGOF1:1,2014-07-11T20:00:00Z,29.4080,-84.8580,1019.3,1111122 
NDBC,ioos:station:NOAA.NDBC:SGOF1:1,2014-07-11T22:00:00Z,29.4080,-84.8580,1018.7,1111122 
NDBC,ioos:station:NOAA.NDBC:SGOF1:1,2014-07-11T23:00:00Z,29.4080,-84.8580,1018.5,1111122 
NDBC,ioos:station:NOAA.NDBC:SGOF1:1,2014-07-12T00:00:00Z,29.4080,-84.8580,1019.2,1111122 
NDBC,ioos:station:NOAA.NDBC:SGOF1:1,2014-07-12T01:00:00Z,29.4080,-84.8580,1019.7,1111122 
NDBC,ioos:station:NOAA.NDBC:SGOF1:1,2014-07-12T02:00:00Z,29.4080,-84.8580,1019.7,1111122 
NDBC,ioos:station:NOAA.NDBC:SGOF1:1,2014-07-12T03:00:00Z,29.4080,-84.8580,1019.9,1111122 
NDBC,ioos:station:NOAA.NDBC:SGOF1:1,2014-07-12T05:00:00Z,29.4080,-84.8580,1020.0,1111122 
NDBC,ioos:station:NOAA.NDBC:SGOF1:1,2014-07-12T06:00:00Z,29.4080,-84.8580,1019.6,1111122 
NDBC,ioos:station:NOAA.NDBC:SGOF1:1,2014-07-12T07:00:00Z,29.4080,-84.8580,1019.1,1111122 
NDBC,ioos:station:NOAA.NDBC:SGOF1:1,2014-07-12T08:00:00Z,29.4080,-84.8580,1018.9,1111122 
NDBC,ioos:station:NOAA.NDBC:SGOF1:1,2014-07-12T09:00:00Z,29.4080,-84.8580,1018.5,1111122 
NDBC,ioos:station:NOAA.NDBC:SGOF1:1,2014-07-12T10:00:00Z,29.4080,-84.8580,1018.9,1111122 
NDBC,ioos:station:NOAA.NDBC:SGOF1:1,2014-07-12T12:00:00Z,29.4080,-84.8580,1019.8,1111122 
NDBC,ioos:station:NOAA.NDBC:SGOF1:1,2014-07-12T13:00:00Z,29.4080,-84.8580,1020.3,1111122 
NDBC,ioos:station:NOAA.NDBC:SGOF1:1,2014-07-12T14:00:00Z,29.4080,-84.8580,1020.6,1111122 
NDBC,ioos:station:NOAA.NDBC:SGOF1:1,2014-07-12T15:00:00Z,29.4080,-84.8580,1020.8,1111122 
NDBC,ioos:station:NOAA.NDBC:SGOF1:1,2014-07-12T16:00:00Z,29.4080,-84.8580,1020.9,1111122 
NDBC,ioos:station:NOAA.NDBC:SGOF1:1,2014-07-12T17:00:00Z,29.4080,-84.8580,1021.2,1111122 
NDBC,ioos:station:NOAA.NDBC:SGOF1:1,2014-07-12T19:00:00Z,29.4080,-84.8580,1020.1,1111122 
NDBC,ioos:station:NOAA.NDBC:SGOF1:1,2014-07-12T20:00:00Z,29.4080,-84.8580,1020.0,1111122 
NDBC,ioos:station:NOAA.NDBC:SGOF1:1,2014-07-12T22:00:00Z,29.4080,-84.8580,1019.2,1111122 
NDBC,ioos:station:NOAA.NDBC:SGOF1:1,2014-07-12T23:00:00Z,29.4080,-84.8580,1018.8,1111122 
NDBC,ioos:station:NOAA.NDBC:SGOF1:1,2014-07-13T00:00:00Z,29.4080,-84.8580,1019.1,1111122 
NDBC,ioos:station:NOAA.NDBC:SGOF1:1,2014-07-13T01:00:00Z,29.4080,-84.8580,1019.1,1111122 
NDBC,ioos:station:NOAA.NDBC:SGOF1:1,2014-07-13T02:00:00Z,29.4080,-84.8580,1019.6,1111122 
NDBC,ioos:station:NOAA.NDBC:SGOF1:1,2014-07-13T03:00:00Z,29.4080,-84.8580,1019.4,1111122 
NDBC,ioos:station:NOAA.NDBC:SGOF1:1,2014-07-13T04:00:00Z,29.4080,-84.8580,1019.2,1111122 
NDBC,ioos:station:NOAA.NDBC:SGOF1:1,2014-07-13T05:00:00Z,29.4080,-84.8580,1019.0,1111122 
NDBC,ioos:station:NOAA.NDBC:SGOF1:1,2014-07-13T07:00:00Z,29.4080,-84.8580,1018.4,1111122 
NDBC,ioos:station:NOAA.NDBC:SGOF1:1,2014-07-13T08:00:00Z,29.4080,-84.8580,1018.0,1111122 
NDBC,ioos:station:NOAA.NDBC:SGOF1:1,2014-07-13T09:00:00Z,29.4080,-84.8580,1018.4,1111122 
NDBC,ioos:station:NOAA.NDBC:SGOF1:1,2014-07-13T10:00:00Z,29.4080,-84.8580,1018.5,1111122 
NDBC,ioos:station:NOAA.NDBC:SGOF1:1,2014-07-13T12:00:00Z,29.4080,-84.8580,1019.5,1111122 
NDBC,ioos:station:NOAA.NDBC:SGOF1:1,2014-07-13T13:00:00Z,29.4080,-84.8580,1019.9,1111122 
NDBC,ioos:station:NOAA.NDBC:SGOF1:1,2014-07-13T14:00:00Z,29.4080,-84.8580,1019.9,1111122 
NDBC,ioos:station:NOAA.NDBC:SGOF1:1,2014-07-13T15:00:00Z,29.4080,-84.8580,1020.4,1111122 
NDBC,ioos:station:NOAA.NDBC:SGOF1:1,2014-07-13T16:00:00Z,29.4080,-84.8580,1020.5,1111122 
NDBC,ioos:station:NOAA.NDBC:SGOF1:1,2014-07-13T18:00:00Z,29.4080,-84.8580,1019.7,1111122 
NDBC,ioos:station:NOAA.NDBC:SGOF1:1,2014-07-13T20:00:00Z,29.4080,-84.8580,1018.6,1111122 
NDBC,ioos:station:NOAA.NDBC:SGOF1:1,2014-07-13T21:00:00Z,29.4080,-84.8580,1018.0,1111122 
NDBC,ioos:station:NOAA.NDBC:SGOF1:1,2014-07-13T22:00:00Z,29.4080,-84.8580,1017.7,1111122 
NDBC,ioos:station:NOAA.NDBC:SGOF1:1,2014-07-13T23:00:00Z,29.4080,-84.8580,1017.9,1111122 
NDBC,ioos:station:NOAA.NDBC:SGOF1:1,2014-07-14T00:00:00Z,29.4080,-84.8580,1018.2,1111122 
NDBC,ioos:station:NOAA.NDBC:SGOF1:1,2014-07-14T01:00:00Z,29.4080,-84.8580,1018.0,1111122 
NDBC,ioos:station:NOAA.NDBC:SGOF1:1,2014-07-14T02:00:00Z,29.4080,-84.8580,1018.4,1111122 
NDBC,ioos:station:NOAA.NDBC:SGOF1:1,2014-07-14T03:00:00Z,29.4080,-84.8580,1018.6,1111122 
NDBC,ioos:station:NOAA.NDBC:SGOF1:1,2014-07-14T05:00:00Z,29.4080,-84.8580,1018.1,1111122 
NDBC,ioos:station:NOAA.NDBC:SGOF1:1,2014-07-14T07:00:00Z,29.4080,-84.8580,1017.7,1111122 
NDBC,ioos:station:NOAA.NDBC:SGOF1:1,2014-07-14T08:00:00Z,29.4080,-84.8580,1017.5,1111122 